Temperature
2 1 0 0 -0 -1 -1 -2 -2 -2 -2 -1 -1 -2 -2 -2 -2 -2 -2 -2 -3 -3 -3 -3 -3 -3 -2 -2 -2 -1 -1 -1 -0 0 0 1 1 2
1 1 0 -0 -1 -1 -2 -2 -3 -3 -3 -3 -2 -3 -3 -3 -3 -3 -3 -3 -3 -3 -3 -3 -3 -3 -3 -3 -2 -2 -2 -1 -1 -0 -0 0 1 1
0 -0 -1 -1 -1 -2 -2 -3 -3 -3 -4 -3 -3 -3 -3 -4 -4 -4 -4 -4 -4 -4 -4 -4 -4 -4 -3 -3 -3 -3 -2 -2 -1 -1 -1 -0 0 1
-0 -1 -1 -2 -2 -2 -3 -3 -3 -4 -4 -4 -4 -4 -4 -4 -4 -5 -5 -5 -4 -4 -4 -4 -4 -4 -4 -4 -3 -3 -3 -3 -2 -2 -1 -1 -1 -0
-1 -1 -2 -2 -3 -3 -3 -4 -4 -4 -4 -5 -5 -5 -5 -5 -5 -5 -5 -5 -5 -5 -5 -5 -4 -4 -4 -4 -4 -4 -3 -3 -3 -3 -2 -2 -1 -1
-1 -2 -2 -3 -3 -3 -4 -4 -4 -5 -5 -5 -5 -5 -5 -5 -5 -5 -5 -5 -5 -5 -5 -5 -5 -5 -4 -4 -4 -4 -4 -3 -3 -3 -3 -2 -2 -2
-2 -2 -3 -3 -3 -4 -4 -5 -5 -5 -5 -5 -5 -5 -5 -5 -5 -5 -5 -5 -5 -5 -5 -5 -5 -5 -5 -5 -5 -4 -4 -4 -4 -3 -3 -3 -2 -2
-3 -3 -3 -4 -4 -4 -4 -5 -5 -5 -5 -5 -5 -5 -5 -5 -5 -5 -5 -5 -5 -5 -5 -5 -5 -5 -5 -5 -5 -5 -5 -4 -4 -4 -4 -3 -3 -3
-4 -4 -4 -4 -5 -5 -5 -5 -6 -6 -6 -6 -6 -6 -6 -5 -5 -5 -5 -6 -6 -6 -6 -6 -6 -5 -5 -5 -5 -5 -5 -5 -4 -4 -4 -3 -3 -3
-4 -4 -5 -5 -5 -5 -6 -6 -6 -6 -6 -6 -6 -6 -6 -6 -6 -6 -6 -6 -6 -6 -6 -6 -6 -6 -6 -6 -5 -5 -5 -5 -5 -4 -4 -4 -3 -3
-4 -5 -5 -5 -5 -6 -6 -6 -6 -6 -6 -6 -6 -6 -6 -6 -6 -6 -6 -6 -6 -6 -6 -6 -6 -6 -6 -6 -6 -6 -5 -5 -5 -4 -4 -4 -4 -3
-5 -5 -5 -5 -6 -6 -6 -6 -6 -6 -6 -6 -6 -6 -6 -6 -6 -6 -6 -7 -7 -7 -7 -7 -7 -7 -7 -6 -6 -6 -6 -5 -5 -5 -5 -4 -4 -4
-6 -6 -6 -6 -6 -6 -6 -6 -6 -6 -6 -6 -7 -7 -7 -7 -7 -7 -7 -7 -7 -7 -7 -7 -7 -7 -7 -7 -7 -6 -6 -6 -6 -5 -5 -5 -4 -4
-6 -6 -6 -7 -7 -7 -7 -7 -7 -7 -7 -7 -7 -7 -7 -7 -7 -7 -7 -7 -8 -8 -8 -8 -8 -8 -8 -8 -7 -7 -6 -6 -6 -6 -5 -5 -5 -4
-6 -7 -7 -7 -7 -7 -7 -7 -7 -7 -7 -8 -8 -8 -8 -8 -8 -8 -8 -8 -8 -8 -8 -8 -8 -8 -8 -8 -8 -7 -7 -6 -6 -6 -6 -6 -5 -5
-7 -7 -7 -7 -7 -7 -7 -8 -8 -8 -8 -8 -8 -8 -8 -8 -8 -9 -9 -9 -8 -8 -8 -8 -8 -8 -8 -8 -8 -7 -7 -7 -7 -6 -6 -6 -6 -5
-7 -8 -8 -8 -8 -8 -8 -8 -8 -8 -9 -9 -9 -9 -9 -9 -9 -9 -9 -9 -9 -9 -8 -8 -8 -8 -8 -8 -8 -7 -7 -7 -7 -7 -6 -6 -6 -6
-8 -8 -8 -8 -8 -8 -9 -9 -9 -9 -9 -9 -10 -10 -10 -10 -10 -9 -9 -9 -9 -9 -9 -9 -9 -8 -8 -8 -7 -7 -7 -7 -7 -7 -7 -7 -6 -6
-8 -9 -9 -9 -9 -9 -9 -9 -10 -10 -10 -10 -10 -10 -10 -10 -10 -10 -10 -9 -9 -9 -9 -9 -9 -9 -8 -8 -7 -7 -7 -7 -7 -7 -7 -7 -7 -6
-9 -9 -9 -9 -9 -10 -10 -10 -10 -10 -10 -10 -10 -10 -10 -10 -10 -10 -10 -10 -10 -9 -9 -9 -9 -9 -9 -8 -8 -8 -7 -7 -7 -7 -7 -7 -7 -6
-10 -10 -10 -10 -10 -10 -10 -11 -11 -11 -11 -11 -11 -11 -11 -11 -11 -10 -10 -10 -10 -10 -10 -9 -9 -9 -9 -9 -9 -8 -8 -8 -8 -7 -7 -7 -7 -7
-10 -10 -10 -10 -10 -11 -11 -11 -11 -11 -11 -11 -11 -11 -11 -11 -11 -11 -11 -10 -10 -10 -10 -10 -9 -9 -9 -9 -9 -8 -8 -8 -8 -7 -7 -7 -7 -7
-11 -11 -11 -11 -11 -11 -11 -11 -11 -12 -11 -11 -11 -11 -11 -11 -11 -11 -11 -11 -10 -10 -10 -10 -10 -9 -9 -9 -9 -9 -8 -8 -8 -8 -8 -7 -7 -7
Wind_Speed
11 12 11 11 11 11 12 12 14 17 17 16 13 13 14 16 19 20 21 24 26 27 28 28 28 28 29 29 29 30 30 30 30 30 30 30 30 29
11 13 13 12 11 11 12 12 13 15 18 14 15 16 16 16 21 22 23 26 27 27 28 28 28 28 28 29 29 29 29 29 29 29 30 30 29 29
13 14 15 15 13 12 12 13 13 14 18 18 16 16 18 18 18 19 21 21 20 25 26 27 28 28 28 28 29 29 29 29 28 28 28 29 29 29
15 15 16 13 16 14 13 14 14 15 17 21 18 16 19 18 18 18 17 18 19 23 26 27 28 28 28 28 28 28 28 28 27 27 27 28 28 28
16 16 16 16 17 15 15 15 14 15 15 17 18 16 16 16 17 17 18 16 17 19 22 24 25 26 27 27 27 27 26 26 26 26 26 26 26 26
16 17 17 17 18 18 16 17 16 16 16 16 17 16 16 16 15 15 15 14 14 14 18 20 22 24 25 26 25 25 25 25 25 25 25 25 24 25
17 17 18 19 21 19 17 17 17 15 15 15 16 16 15 14 14 14 15 15 15 14 14 14 14 13 15 18 20 21 22 23 23 23 23 23 23 23
18 18 18 19 21 23 25 25 23 20 18 17 16 17 18 17 15 14 14 14 14 11 12 14 13 13 13 13 18 21 21 22 22 22 22 22 22 22
18 18 16 16 20 18 20 23 23 25 25 21 20 20 20 18 17 17 15 16 16 13 13 14 13 14 13 14 21 22 22 23 23 22 22 22 22 22
18 18 18 19 17 18 18 18 19 19 21 18 17 19 19 19 17 17 17 16 16 13 12 13 13 13 13 13 18 20 21 21 20 20 21 20 20 20
18 17 18 18 21 23 20 19 20 19 20 23 25 25 27 27 22 14 12 12 13 12 10 10 12 12 12 12 13 16 17 17 17 17 17 17 17 16
15 16 19 21 22 23 19 18 19 18 17 17 19 20 19 19 21 15 11 12 12 11 8 8 10 9 8 8 8 8 9 11 13 13 13 14 14 10
14 14 14 21 23 24 23 19 20 20 17 16 15 14 13 12 11 11 10 10 12 11 8 7 9 9 9 9 9 9 8 7 7 7 9 10 11 10
16 14 15 22 25 26 22 21 24 21 13 13 12 12 11 10 9 9 9 10 11 13 12 10 9 10 10 11 9 7 7 7 7 7 6 7 8 10
16 21 24 27 26 21 21 22 19 13 11 12 12 12 11 10 9 9 10 9 11 11 11 11 11 10 10 10 10 9 8 7 6 6 5 5 5 4
16 19 24 25 21 19 17 14 11 10 10 11 11 11 10 9 9 9 9 8 8 9 8 9 10 10 10 10 10 9 8 5 4 5 5 5 4 4
16 14 13 13 12 11 10 10 9 9 10 10 10 10 10 10 9 9 8 8 9 9 8 6 6 7 9 9 9 9 8 7 6 5 5 5 4 4
20 14 13 12 11 10 10 10 10 10 10 9 10 10 10 10 9 9 8 9 9 9 8 6 5 5 5 6 9 8 7 6 4 4 4 4 4 3
16 13 12 12 11 11 10 10 10 10 9 9 10 10 10 9 9 9 9 8 8 8 7 6 6 6 7 6 4 7 6 5 4 4 4 4 4 3
11 12 12 12 11 11 10 10 10 9 9 9 10 10 9 9 9 9 9 9 8 8 7 6 6 6 6 6 4 3 6 6 4 4 3 3 3 3
12 12 12 12 11 11 11 10 10 10 10 10 10 10 10 9 9 9 9 11 10 8 8 7 5 6 5 4 5 5 4 5 5 4 3 3 3 3
13 12 12 12 11 11 11 10 10 11 11 10 10 10 9 9 10 10 9 9 8 8 8 6 5 5 5 6 6 5 4 3 3 5 6 5 3 2
12 12 12 12 11 11 10 11 12 11 11 10 10 10 9 9 9 9 9 9 8 8 7 6 5 4 5 5 5 5 4 4 3 2 3 4 5 4
Wind_Direction
275 275 273 273 272 271 271 273 280 289 291 292 292 289 288 286 287 288 288 288 289 288 287 286 285 284 283 282 281 280 278 277 275 274 272 271 270 269
275 274 274 274 274 271 269 270 270 275 284 287 290 289 289 285 285 286 286 288 286 285 286 286 285 284 283 282 281 280 279 277 275 273 271 269 268 267
276 274 274 275 275 273 272 271 271 272 278 285 287 289 289 287 286 286 286 286 285 284 285 285 285 285 283 282 281 280 278 277 276 274 272 270 269 267
278 277 276 277 274 274 273 272 272 272 276 285 288 290 289 289 287 286 286 285 283 284 285 285 284 284 283 282 280 279 277 277 277 275 273 271 270 269
278 277 277 277 276 275 274 275 275 275 275 280 285 287 287 286 286 284 283 281 282 284 284 283 283 282 283 282 280 278 278 277 276 275 273 272 271 270
276 275 274 274 275 276 277 276 277 277 276 277 280 283 283 284 282 284 285 283 283 284 283 283 283 284 282 280 280 278 277 278 276 274 273 271 269 268
278 276 274 273 273 274 274 276 277 276 277 277 279 282 282 284 283 284 284 285 284 284 285 284 285 283 284 281 278 276 275 275 274 273 272 271 268 266
280 280 278 276 275 275 275 276 277 278 280 279 280 280 283 284 286 285 283 283 286 285 283 284 285 283 281 280 279 279 277 275 274 272 270 270 269 266
280 280 280 278 279 278 279 280 279 276 275 276 278 279 282 284 285 283 278 278 280 284 286 283 282 281 281 277 277 277 277 276 273 271 271 269 268 265
278 278 279 280 279 280 281 280 278 276 275 274 273 276 278 280 278 277 279 279 278 275 273 278 282 282 284 282 281 278 279 279 276 272 270 268 267 264
279 277 277 278 279 280 281 280 281 280 279 277 277 278 279 280 280 281 278 279 281 281 275 275 282 286 287 285 281 279 280 281 280 275 271 270 268 264
282 279 277 277 280 282 282 282 282 283 285 286 285 282 281 281 281 275 275 278 282 285 278 273 281 290 290 283 286 289 284 280 280 280 276 273 270 265
285 284 281 282 282 284 284 282 282 287 289 288 287 284 280 274 270 268 265 266 273 274 280 279 280 280 276 284 288 286 284 284 282 280 274 270 269 266
284 284 283 284 285 285 285 282 286 291 288 286 284 281 280 277 276 274 269 265 264 268 273 274 273 275 276 279 282 283 282 283 283 280 275 271 264 260
284 285 287 288 288 287 283 284 288 287 284 282 280 281 282 284 285 282 276 265 263 263 263 261 263 266 265 270 275 279 284 282 277 274 270 265 263 254
287 287 288 287 284 281 281 282 279 277 278 279 282 284 285 284 281 279 278 276 275 274 260 257 259 260 262 264 268 272 271 269 270 273 272 268 264 257
292 289 285 284 279 274 275 276 276 276 278 277 278 280 281 281 280 279 276 274 272 277 279 271 261 258 260 264 264 263 265 264 260 258 259 263 257 249
295 288 285 285 282 280 281 280 279 278 277 277 276 277 278 279 280 278 275 271 271 274 277 279 279 277 265 247 239 257 262 262 260 249 244 253 256 250
289 283 283 284 283 280 278 278 279 278 278 276 275 275 274 275 277 276 273 271 270 271 273 274 271 270 274 274 234 224 249 263 257 247 244 248 259 267
281 282 282 283 282 280 278 278 279 278 275 274 274 272 271 272 272 273 272 270 272 272 271 267 262 264 271 280 280 261 246 255 253 248 242 245 259 272
284 282 281 282 280 278 277 276 275 276 274 273 273 272 270 268 269 271 273 272 269 268 268 269 268 272 273 264 259 257 256 247 252 249 240 238 245 244
283 283 282 280 279 277 275 273 273 273 272 269 269 269 267 265 266 267 269 270 267 263 268 272 269 260 249 248 257 265 264 251 243 241 244 250 255 254
284 284 283 282 279 277 273 270 269 270 270 268 268 267 265 264 264 264 264 264 264 261 262 266 263 253 250 251 254 257 255 251 238 225 226 230 239 254
Height
1496 1493 1489 1486 1483 1479 1476 1473 1468 1458 1452 1452 1450 1446 1443 1439 1435 1431 1427 1424 1421 1417 1414 1412 1410 1408 1407 1405 1404 1404 1403 1402 1402 1403 1403 1404 1404 1405
1489 1485 1482 1479 1475 1472 1469 1465 1461 1455 1445 1443 1442 1439 1436 1431 1428 1424 1420 1416 1412 1409 1406 1404 1401 1399 1398 1396 1395 1394 1393 1393 1393 1393 1393 1394 1395 1396
1482 1478 1475 1472 1468 1464 1461 1457 1454 1449 1441 1434 1434 1431 1428 1424 1419 1416 1412 1408 1404 1401 1398 1395 1393 1390 1389 1387 1386 1385 1384 1383 1383 1383 1383 1384 1385 1386
1474 1470 1467 1464 1460 1457 1453 1449 1446 1442 1436 1428 1424 1423 1419 1416 1412 1408 1404 1401 1397 1394 1390 1387 1384 1382 1380 1378 1376 1375 1374 1374 1374 1373 1374 1375 1375 1376
1466 1462 1459 1455 1451 1449 1445 1441 1438 1434 1429 1423 1417 1414 1411 1408 1404 1400 1397 1393 1390 1386 1383 1380 1376 1374 1371 1369 1367 1366 1365 1364 1364 1364 1364 1365 1366 1366
1457 1454 1450 1447 1443 1440 1436 1433 1430 1425 1422 1417 1411 1406 1403 1400 1398 1393 1389 1386 1383 1379 1376 1372 1369 1366 1363 1360 1359 1357 1356 1355 1355 1355 1355 1356 1356 1357
1448 1445 1441 1437 1434 1431 1428 1424 1421 1417 1413 1409 1404 1399 1396 1393 1390 1387 1382 1378 1375 1373 1369 1365 1362 1359 1356 1353 1351 1349 1347 1346 1346 1346 1346 1347 1348 1349
1439 1435 1431 1428 1424 1421 1418 1415 1413 1409 1405 1401 1396 1392 1388 1386 1383 1379 1376 1371 1367 1366 1363 1358 1356 1352 1349 1346 1343 1341 1340 1338 1338 1338 1338 1339 1339 1340
1430 1426 1422 1418 1415 1412 1408 1405 1402 1399 1397 1394 1388 1384 1381 1378 1376 1371 1368 1364 1360 1358 1356 1350 1348 1344 1341 1338 1336 1334 1332 1331 1330 1330 1330 1331 1332 1333
1421 1417 1413 1409 1406 1403 1399 1395 1392 1389 1387 1384 1380 1376 1373 1370 1367 1364 1360 1356 1352 1350 1348 1343 1340 1337 1334 1331 1329 1326 1325 1323 1322 1322 1322 1323 1324 1325
1411 1408 1404 1400 1397 1394 1391 1386 1382 1379 1377 1374 1371 1367 1364 1361 1359 1356 1352 1348 1344 1342 1341 1338 1333 1331 1327 1324 1322 1319 1318 1316 1316 1315 1315 1316 1317 1318
1402 1398 1395 1391 1388 1386 1383 1378 1374 1370 1368 1364 1361 1358 1355 1352 1350 1348 1345 1342 1338 1335 1333 1332 1328 1326 1321 1319 1317 1315 1313 1311 1310 1310 1310 1310 1311 1312
1392 1388 1385 1382 1379 1377 1374 1370 1366 1363 1359 1355 1351 1348 1345 1343 1341 1339 1337 1335 1332 1328 1327 1326 1323 1321 1318 1314 1312 1310 1309 1307 1306 1305 1305 1305 1306 1307
1384 1380 1376 1373 1370 1367 1365 1361 1358 1355 1351 1347 1344 1340 1338 1335 1333 1331 1329 1327 1324 1322 1320 1319 1317 1315 1313 1310 1307 1306 1305 1303 1302 1301 1301 1301 1301 1302
1376 1371 1368 1364 1361 1357 1354 1352 1349 1346 1343 1339 1336 1334 1331 1329 1326 1323 1321 1319 1317 1315 1313 1312 1311 1309 1308 1306 1303 1302 1301 1299 1299 1298 1297 1297 1298 1298
1367 1362 1358 1355 1351 1348 1345 1343 1340 1338 1335 1332 1329 1326 1324 1322 1319 1317 1315 1313 1311 1309 1307 1306 1305 1303 1302 1300 1299 1297 1297 1296 1295 1295 1295 1295 1295 1295
1358 1353 1349 1345 1342 1339 1337 1334 1332 1330 1328 1325 1322 1320 1318 1315 1313 1311 1309 1307 1306 1303 1302 1301 1299 1298 1296 1295 1294 1293 1292 1292 1292 1292 1292 1292 1292 1292
1350 1345 1341 1338 1334 1332 1329 1327 1325 1322 1320 1318 1316 1314 1312 1309 1307 1306 1304 1302 1300 1299 1297 1296 1295 1293 1292 1290 1290 1288 1289 1288 1288 1288 1289 1289 1290 1290
1341 1336 1333 1330 1327 1324 1322 1320 1317 1315 1313 1311 1309 1307 1305 1304 1302 1300 1298 1297 1296 1294 1293 1292 1291 1290 1289 1287 1286 1286 1286 1286 1286 1286 1286 1287 1287 1288
1332 1329 1326 1323 1320 1317 1315 1312 1310 1308 1306 1304 1302 1301 1299 1298 1296 1295 1293 1292 1291 1290 1288 1287 1287 1286 1285 1285 1284 1283 1283 1283 1283 1284 1284 1284 1284 1285
1324 1321 1318 1315 1312 1310 1307 1305 1303 1301 1299 1297 1295 1294 1293 1292 1290 1289 1288 1287 1286 1285 1284 1283 1282 1282 1282 1281 1281 1280 1280 1280 1280 1281 1282 1282 1283 1283
1316 1313 1310 1307 1305 1302 1300 1298 1295 1293 1292 1290 1289 1287 1286 1285 1284 1283 1282 1281 1281 1280 1279 1279 1278 1278 1278 1278 1277 1277 1277 1277 1277 1278 1279 1280 1281 1282
1308 1305 1302 1299 1297 1294 1292 1290 1288 1286 1284 1283 1282 1281 1280 1279 1278 1277 1276 1276 1275 1275 1275 1274 1274 1274 1274 1274 1274 1274 1275 1275 1275 1276 1277 1278 1279 1280